EW4380 Weather Reports


time (UTC)temp
C
wind
direction
speed
KPH
gust
KPH
rain 1hr
cm
rain 24hr
cm
rain mn
cm
humidity
%
barometer
mb
20260506221532 30 97 4.8 12.9 0.00 0.00 0.00 71 1007.8
20260506220040 29 90 8.0 14.5 0.00 0.00 0.00 69 1007.8
20260506214531 30 103 1.6 11.3 0.00 0.00 0.00 69 1007.8
20260506213030 30 116 3.2 9.7 0.00 0.00 0.00 68 1007.9
20260506211530 30 113 4.8 9.7 0.00 0.00 0.00 68 1008.2
20260506210030 29 109 3.2 11.3 0.00 0.00 0.00 69 1008.4
20260506204530 30 133 3.2 8.0 0.00 0.00 0.00 68 1008.5
20260506203027 29 134 3.2 11.3 0.00 0.00 0.00 70 1008.5
20260506201526 29 76 3.2 12.9 0.00 0.00 0.00 71 1008.9
20260506200025 28 103 1.6 11.3 0.00 0.00 0.00 72 1009.0
20260506194532 29 139 1.6 8.0 0.00 0.00 0.00 72 1009.1
20260506193024 29 135 4.8 12.9 0.00 0.00 0.00 74 1009.2
20260506191521 28 119 3.2 11.3 0.00 0.00 0.00 76 1009.2
20260506190020 28 74 4.8 11.3 0.00 0.00 0.00 76 1009.3
20260506184521 28 71 1.6 9.7 0.00 0.00 0.00 75 1009.7
20260506183018 28 102 1.6 14.5 0.00 0.00 0.00 76 1009.8
20260506181514 27 60 3.2 9.7 0.00 0.00 0.00 79 1009.9
20260506180014 27 86 4.8 11.3 0.00 0.00 0.00 79 1010.2
20260506174511 27 91 4.8 11.3 0.00 0.00 0.00 79 1010.2
20260506173009 26 99 1.6 9.7 0.00 0.00 0.00 81 1010.3
20260506171506 26 78 3.2 9.7 0.00 0.00 0.00 82 1010.2
20260506170004 26 65 1.6 8.0 0.00 0.00 0.00 83 1010.3
20260506164501 25 60 3.2 9.7 0.00 0.00 0.00 84 1010.3
20260506163100 25 80 4.8 11.3 0.00 0.00 0.00 85 1010.2
20260506161601 25 103 3.2 9.7 0.00 0.00 0.00 85 1010.0
20260506160110 25 103 4.8 9.7 0.00 0.00 0.00 86 1010.0
20260506154556 25 140 1.6 4.8 0.00 0.00 0.00 86 1009.7
20260506153055 25 140 1.6 4.8 0.00 0.00 0.00 86 1009.6
20260506151554 25 140 1.6 4.8 0.00 0.00 0.00 86 1009.5
20260506150052 24 140 3.2 4.8 0.00 0.00 0.00 87 1009.3
20260506144551 24 140 1.6 4.8 0.00 0.00 0.00 87 1009.1
20260506143048 24 140 1.6 4.8 0.00 0.00 0.00 88 1008.8
20260506141545 24 140 0.0 6.4 0.00 0.00 0.00 88 1008.7
20260506140044 23 141 6.4 12.9 0.00 0.00 0.00 88 1008.4
20260506134547 23 140 3.2 14.5 0.00 0.00 0.00 89 1008.3
20260506133042 23 144 1.6 6.4 0.00 0.00 0.00 89 1008.1
20260506131556 23 147 3.2 9.7 0.00 0.00 0.00 89 1008.0
20260506130049 23 155 1.6 8.0 0.00 0.00 0.00 89 1007.9
20260506124541 23 157 1.6 8.0 0.00 0.00 0.00 89 1007.8
20260506123041 22 158 1.6 4.8 0.00 0.00 0.00 89 1008.0
20260506121540 22 158 0.0 1.6 0.00 0.00 0.00 89 1008.0
20260506120040 22 158 0.0 0.0 0.00 0.00 0.00 89 1007.8
20260506114538 22 158 0.0 0.0 0.00 0.00 0.00 88 1007.8
20260506113037 22 158 0.0 0.0 0.00 0.00 0.00 88 1007.8
20260506111536 22 158 0.0 4.8 0.00 0.00 0.00 88 1007.6
20260506110035 23 159 0.0 8.0 0.00 0.00 0.00 88 1007.6
20260506104534 23 159 1.6 4.8 0.00 0.00 0.00 88 1007.6
20260506103038 23 159 0.0 8.0 0.00 0.00 0.00 87 1007.5
20260506101531 23 161 0.0 9.7 0.00 0.00 0.00 87 1007.4
20260506100035 23 129 0.0 6.4 0.00 0.00 0.00 87 1007.6
20260506094535 23 123 1.6 4.8 0.00 0.00 0.00 87 1007.8
20260506093034 23 123 1.6 6.4 0.00 0.00 0.00 87 1007.8
20260506091528 23 146 1.6 4.8 0.00 0.00 0.00 87 1007.7
20260506090025 23 147 3.2 9.7 0.00 0.00 0.00 86 1007.7
20260506084524 24 157 1.6 9.7 0.00 0.00 0.00 86 1007.8
20260506083023 24 175 1.6 8.0 0.00 0.00 0.00 86 1007.8
20260506081528 24 155 3.2 6.4 0.00 0.00 0.00 86 1007.9
20260506073019 24 157 4.8 12.9 0.00 0.00 0.00 86 1008.0
20260506071520 24 145 1.6 14.5 0.00 0.00 0.00 86 1008.1
20260506061514 24 123 6.4 14.5 0.00 0.00 0.00 85 1007.9
20260506044559 25 132 4.8 17.7 0.00 0.00 0.00 85 1007.9
20260506043049 25 136 3.2 16.1 0.00 0.00 0.00 85 1007.9
20260506041550 25 134 3.2 11.3 0.00 0.00 0.00 84 1007.8
20260506040048 25 104 6.4 12.9 0.00 0.00 0.00 83 1007.4
20260506034547 26 123 8.0 16.1 0.00 0.00 0.00 82 1007.1
20260506033046 26 132 8.0 16.1 0.00 0.00 0.00 82 1007.3
20260506031550 26 151 4.8 14.5 0.00 0.00 0.00 81 1007.2
20260506030045 26 126 4.8 14.5 0.00 0.00 0.00 82 1006.9
20260506024553 26 108 4.8 12.9 0.00 0.00 0.00 81 1006.6
20260506023044 27 98 4.8 12.9 0.00 0.00 0.00 81 1006.5
20260506021544 27 84 6.4 17.7 0.00 0.00 0.00 80 1006.2
20260506020044 27 99 6.4 16.1 0.00 0.00 0.00 79 1005.8
20260506014544 27 90 8.0 16.1 0.00 0.00 0.00 78 1005.6
20260506013043 28 100 4.8 11.3 0.00 0.00 0.00 77 1005.3
20260506011543 28 101 4.8 12.9 0.00 0.00 0.00 76 1005.2
20260506010043 28 98 4.8 17.7 0.00 0.00 0.00 74 1005.0
20260506004541 29 71 3.2 16.1 0.00 0.00 0.00 73 1004.6
20260506003040 30 96 6.4 12.9 0.00 0.00 0.00 70 1004.6
20260506001541 31 102 3.2 12.9 0.00 0.00 0.00 70 1004.8
20260506000040 30 101 6.4 14.5 0.00 0.00 0.00 69 1004.6
20260505234538 31 115 3.2 9.7 0.00 0.00 0.00 68 1004.6
20260505233036 31 115 3.2 12.9 0.00 0.00 0.00 68 1004.7
20260505231544 31 120 3.2 11.3 0.00 0.00 0.00 69 1004.6
20260505230049 31 125 4.8 14.5 0.00 0.00 0.00 68 1004.5
20260505224533 31 134 6.4 12.9 0.00 0.00 0.00 68 1004.5
20260505223033 31 89 9.7 17.7 0.00 0.00 0.00 67 1004.6